SCP
0 0 -0 0 0 0 0 0 0 0 0 0 0 0 0 0 0 0 0 0 0 0 0 0 0 -0 0 0 -0 -0 -0 -0 -0 -0 -0 -0 -0 -0 -0 -0 -0 -0 -0 0 0 0 0 0 0
0 -0 0 0 0 0 0 0 0 0 0 -0 0 0 0 0 0 0 0 0 0 0 0 0 0 0 0 -0 -0 -0 -0 -0 -0 -0 -0 -0 -0 -0 -0 0 -0 -0 -0 -0 0 0 0 0 0
0 -0 0 0 0 0 0 0 0 0 0 0 0 0 0 0 0 0 0 0 0 0 0 0 0 0 -0 -0 -0 -0 -0 -0 -0 -0 -0 -0 -0 -0 -0 -0 0 0 0 0 0 0 0 0 0
0 0 0 0 0 0 0 -0 0 0 0 0 0 0 0 0 -0 0 0 0 0 0 0 0 0 0 -0 -0 -0 -0 -0 -0 -0 -0 -0 -0 -0 -0 -0 -0 0 0 0 0 0 0 0 0 0
0 0 0 0 0 0 0 -0 -0 0 0 0 0 0 0 0 0 0 0 0 0 0 0 0 0 0 0 0 -0 -0 -0 -0 -0 -0 -0 -0 -0 -0 0 0 0 0 0 0 0 0 0 0 0
0 0 0 0 0 0 0 -0 0 0 0 0 0 0 0 0 0 0 0 0 0 0 0 0 0 0 0 0 0 -0 0 -0 -0 -0 -0 -0 -0 0 0 0 0 0 0 0 0 0 0 0 0
0 0 0 0 0 0 0 -0 0 -0 -0 0 0 0 0 0 0 0 0 0 0 0 0 0 0 0 0 0 0 0 0 0 0 -0 -0 0 0 0 0 0 0 0 0 0 0 0 0 0 0
0 0 0 0 0 0 0 0 0 0 0 0 -0 0 0 -0 0 0 0 0 0 0 0 0 0 0 0 0 0 0 0 0 0 0 0 0 0 0 0 0 0 0 0 0 0 0 0 0 0
0 0 0 0 0 0 0 0 0 0 0 0 0 -0 -0 0 0 0 0 0 0 0 0 0 0 0 0 0 0 0 0 0 0 0 0 0 0 0 0 0 0 0 0 0 0 0 0 0 0
0 0 0 0 0 0 0 0 0 0 0 0 0 0 0 0 0 0 0 0 0 0 0 0 0 0 0 0 0 0 0 0 0 0 0 0 0 0 0 0 0 0 0 0 0 0 0 0 0
0 0 0 0 0 0 0 0 0 0 0 0 0 0 0 0 0 0 0 0 0 0 0 0 0 0 0 0 0 0 0 0 0 0 0 0 0 0 0 0 0 0 0 0 0 0 0 0 0
0 0 0 0 0 0 0 0 0 0 0 0 0 0 0 0 0 0 0 0 0 0 0 0 0 0 0 0 0 0 0 0 0 0 0 0 0 0 0 0 0 0 0 0 0 0 0 0 0
0 0 0 0 0 0 0 0 0 0 0 0 0 0 0 0 0 0 0 0 0 0 0 0 0 0 0 0 0 0 0 0 0 0 0 0 0 0 0 0 0 0 0 0 0 0 0 0 0
0 0 0 0 0 0 0 0 0 0 0 0 0 0 0 0 0 0 0 0 0 0 0 0 0 0 0 0 0 0 0 0 0 0 0 0 0 0 0 0 0 0 0 0 0 0 0 0 0
0 0 0 0 0 0 0 0 0 0 0 0 0 0 0 0 0 0 0 0 0 0 0 0 0 0 0 0 0 0 0 0 0 0 0 0 0 0 0 0 0 0 0 0 0 0 0 0 0
0 0 0 0 0 0 0 0 0 0 0 0 0 0 0 0 0 0 0 0 0 0 0 0 0 0 0 0 0 0 0 0 0 0 0 0 0 0 0 0 0 0 0 0 0 0 0 0 0
0 0 0 0 0 0 0 0 0 0 0 0 0 0 0 0 0 0 0 0 0 0 0 0 0 0 0 0 0 0 0 0 0 0 0 0 0 0 0 0 0 0 0 0 0 0 0 0 0
0 0 0 0 0 0 0 0 0 0 0 0 0 0 0 0 0 0 0 0 0 0 0 0 0 0 0 0 0 0 0 0 0 0 0 0 0 0 0 0 0 0 0 0 0 0 0 0 0
0 0 0 0 0 0 0 0 0 0 0 0 0 0 0 0 0 0 0 0 0 0 0 0 0 0 0 0 0 0 0 0 0 0 0 0 0 0 0 0 0 0 0 0 0 0 0 0 0
0 0 0 0 0 0 0 0 0 0 0 0 0 0 0 0 0 0 0 0 0 0 0 0 0 0 0 0 0 0 0 0 0 0 0 0 0 0 0 0 0 0 0 0 0 0 0 0 0
0 0 0 0 0 0 0 0 0 0 0 0 0 0 0 0 0 0 0 0 0 0 0 0 0 0 0 0 0 0 0 0 0 0 0 0 0 0 0 0 0 0 0 0 0 0 0 0 0
0 0 0 0 0 0 0 0 0 0 0 0 0 0 0 0 0 0 0 0 0 0 0 0 0 0 0 0 0 0 0 0 0 0 0 0 0 0 0 0 0 0 0 0 0 0 0 0 0
0 0 0 0 0 0 0 0 0 0 0 0 0 0 0 0 0 0 0 0 0 0 0 0 0 0 0 0 0 0 0 0 0 0 0 0 0 0 0 0 0 0 0 0 0 0 0 0 0
0 0 0 0 0 0 0 0 0 0 0 0 0 0 0 0 0 0 0 0 0 0 0 0 0 0 0 0 0 0 0 0 0 0 0 0 0 0 0 0 0 0 0 0 0 0 0 0 0
0 0 0 0 0 0 0 0 0 -0 0 0 0 0 0 0 0 0 0 0 0 0 0 0 0 0 0 0 0 0 0 0 0 0 0 0 0 0 0 0 0 0 0 0 0 0 0 0 0
0 0 0 0 0 0 0 0 0 0 0 0 0 0 0 0 0 0 0 0 0 0 0 0 0 0 0 0 0 0 0 0 0 0 0 0 0 0 0 0 0 0 0 0 0 0 0 0 0
0 0 0 0 0 0 0 0 0 0 0 0 0 0 0 0 0 0 0 0 0 0 0 0 0 0 0 0 0 0 0 0 0 0 0 0 0 0 0 0 0 0 0 0 0 0 0 0 0
0 0 0 0 0 0 0 0 0 0 0 0 0 0 0 0 0 0 0 0 0 0 0 0 0 0 0 0 0 0 0 0 0 0 0 0 0 0 0 0 0 0 0 0 0 0 0 0 0
0 0 0 0 0 0 0 0 0 0 0 0 0 0 0 0 0 0 0 0 0 0 0 0 0 0 0 0 0 0 0 0 0 0 0 0 0 0 0 0 0 0 0 0 0 0 0 0 0
0 0 0 0 0 0 0 0 0 0 0 0 0 0 0 0 0 0 0 0 -0 -0 -0 0 0 0 0 0 0 0 0 0 0 0 0 0 0 0 0 0 0 0 0 0 0 0 0 0 0
Wind_Speed_500mb
35 18 10 2 7 9 2 1 1 4 6 11 10 20 18 11 3 5 34 34 30 38 36 36 38 36 31 27 24 23 21 19 17 14 13 13 13 14 14 19 23 20 25 24 24 24 25 24 26
37 19 3 4 8 6 8 2 8 5 14 35 31 18 12 4 10 28 47 31 24 40 36 36 37 35 33 28 22 18 16 13 12 11 12 12 13 12 13 18 26 15 13 19 22 23 23 23 24
32 13 2 8 6 8 9 7 12 8 12 5 11 18 8 6 13 48 36 38 34 38 34 35 37 36 31 27 22 17 12 12 13 13 13 13 12 8 12 13 17 22 16 17 19 20 20 20 20
23 3 6 7 6 5 14 14 11 13 10 10 25 14 9 8 36 33 43 39 34 37 32 30 33 33 31 28 23 15 12 15 15 13 11 10 9 8 6 10 11 14 13 13 14 16 15 15 14
16 3 6 5 5 2 4 27 24 8 9 16 13 7 8 33 14 32 40 39 38 40 35 32 31 32 31 29 25 18 17 15 15 12 10 10 10 8 7 5 5 8 8 7 8 9 10 10 10
8 4 7 2 4 1 6 29 23 14 13 17 17 14 10 22 27 32 35 35 41 40 37 33 31 31 32 30 25 21 16 16 13 10 11 8 9 9 8 6 5 4 4 4 5 5 5 5 4
5 6 6 5 10 5 11 25 27 21 22 8 29 9 15 28 28 34 35 33 41 38 34 31 28 28 28 28 26 24 22 17 15 12 9 8 7 8 8 8 7 7 6 4 5 7 7 6 5
3 7 3 3 11 9 13 14 23 30 10 22 15 14 14 39 36 37 28 32 37 36 34 35 34 33 31 30 29 27 26 24 21 16 14 8 7 7 7 8 9 9 10 9 9 10 11 11 11
2 6 1 4 11 8 18 10 10 16 21 11 11 14 10 49 46 43 35 32 32 37 38 38 35 31 29 28 27 26 25 24 24 22 18 13 12 11 11 12 12 11 11 12 13 14 14 15 16
6 6 9 2 5 9 8 12 24 13 18 7 12 15 37 54 56 56 53 46 44 39 38 39 39 36 33 31 29 27 25 26 25 23 22 20 18 18 17 16 14 12 13 15 16 17 17 17 19
8 9 5 4 10 5 15 11 10 26 5 18 34 41 48 52 56 55 50 48 43 36 35 37 38 41 38 35 32 30 28 27 27 26 26 25 24 24 24 21 20 18 19 20 21 21 21 21 22
4 3 3 1 13 8 6 8 9 20 8 16 29 38 47 48 52 56 54 50 47 42 37 34 30 31 38 35 35 32 32 30 30 26 27 29 29 28 28 25 23 22 21 23 23 23 23 24 25
7 5 4 4 5 7 4 7 4 16 11 9 36 44 46 45 46 48 51 47 44 44 40 39 37 33 32 36 36 36 34 32 29 30 29 30 30 30 31 30 29 28 28 28 27 27 27 29 28
3 5 4 4 4 2 3 4 4 10 17 14 30 46 45 41 40 42 49 54 54 45 44 41 43 42 40 37 34 31 31 31 31 31 28 29 30 30 32 33 34 34 33 32 31 31 32 32 33
2 3 7 5 5 4 3 11 8 14 18 22 31 36 35 34 34 37 37 42 43 40 38 41 43 41 45 40 36 34 32 32 33 31 30 29 30 30 33 33 35 37 36 36 37 36 37 38 38
6 8 3 5 11 4 11 14 7 16 15 25 29 31 33 32 34 30 28 30 31 32 34 33 34 37 36 37 37 39 40 40 37 38 38 37 36 36 37 38 38 35 38 40 41 41 42 44 43
8 7 9 9 4 5 6 12 5 0 4 30 28 31 32 32 36 37 34 33 31 31 31 34 35 37 36 36 36 38 38 43 43 47 47 46 45 43 45 45 41 36 40 43 44 45 46 47 46
13 8 8 9 3 3 7 16 12 17 14 13 20 32 38 39 39 35 34 40 39 37 37 38 38 38 36 36 38 40 42 44 46 48 50 51 51 51 51 51 48 42 42 45 46 47 44 48 48
12 8 8 3 3 5 9 13 16 35 33 40 36 33 39 44 37 23 28 31 33 43 48 49 49 49 46 46 47 49 52 52 51 51 47 46 46 48 51 54 54 49 49 48 46 45 47 49 50
7 5 4 3 2 4 2 16 20 26 32 56 59 58 55 49 46 38 33 35 38 37 37 42 47 48 51 53 53 54 55 56 51 47 44 43 42 42 43 47 53 52 53 51 48 47 50 51 51
7 9 7 5 4 4 4 12 14 11 29 48 66 64 60 64 64 59 55 50 47 43 45 48 51 56 54 51 49 51 53 57 56 54 50 45 43 40 36 41 47 55 47 50 49 49 48 50 50
11 10 11 13 7 6 2 9 11 8 15 13 32 42 56 59 57 55 47 50 55 57 51 48 49 52 54 55 56 58 60 61 57 53 47 42 37 37 39 39 40 49 50 46 47 48 48 45 48
7 8 12 7 7 5 4 2 15 7 15 17 13 27 24 18 17 21 22 26 31 38 45 49 52 55 56 54 56 58 60 62 53 46 43 41 38 36 35 32 31 28 43 51 47 41 37 36 40
13 13 14 9 7 3 15 14 10 9 14 2 4 12 16 14 11 11 15 18 24 32 37 40 44 49 52 52 50 51 53 52 51 49 46 42 40 38 34 32 33 31 32 40 41 38 35 36 38
4 11 4 4 3 10 3 8 15 16 13 9 16 20 16 13 10 7 5 4 6 8 11 15 19 24 29 36 45 50 50 48 47 47 47 44 39 37 38 38 35 33 32 35 36 34 38 39 38
8 11 9 15 9 7 3 12 11 8 29 18 22 20 16 13 11 7 4 1 4 4 5 6 7 8 12 18 22 27 34 43 47 46 42 40 41 42 42 38 35 34 33 34 36 37 38 40 41
9 9 9 10 5 5 7 12 16 7 8 16 17 13 10 13 13 7 2 3 6 9 9 9 8 8 8 9 11 15 19 22 25 30 32 34 37 39 36 33 31 30 30 29 29 31 32 35 37
8 12 4 4 7 8 8 8 10 5 11 8 11 17 15 17 13 11 11 12 11 11 10 9 11 12 13 12 12 11 13 16 18 21 23 24 25 25 24 22 20 19 21 23 25 28 30 32 35
9 7 7 7 8 7 2 10 12 13 16 17 17 19 21 21 21 15 10 6 9 10 12 15 15 15 15 16 16 17 18 18 20 20 21 19 19 18 17 15 16 17 20 23 25 27 29 31 32
5 10 10 7 10 6 4 10 8 7 23 33 24 27 24 16 13 9 8 5 11 15 16 18 21 22 21 19 18 19 19 20 21 20 19 18 17 15 15 15 17 19 22 24 27 29 29 29 30
Wind_Direction_500mb
341 339 317 244 61 67 301 23 88 73 47 69 94 105 117 69 116 180 146 154 170 170 162 158 154 150 151 146 149 154 155 153 149 141 134 126 121 112 95 104 109 94 90 90 96 101 107 108 116
337 331 334 93 87 80 264 283 121 153 138 110 101 88 63 93 133 143 154 163 181 170 165 162 160 158 161 160 160 157 161 158 148 146 144 140 134 123 108 109 107 94 79 94 98 104 107 107 117
333 337 100 102 119 171 180 198 161 129 121 122 105 90 90 134 167 153 161 162 172 170 168 167 166 164 165 163 165 168 164 166 168 162 157 156 143 129 112 102 110 123 114 105 101 101 103 103 111
337 57 66 87 179 219 164 191 161 134 108 86 115 73 97 203 157 166 159 170 171 173 168 168 171 171 169 170 175 187 177 167 167 164 159 153 164 158 134 104 103 112 126 105 106 100 101 103 107
342 33 57 94 297 28 134 170 162 125 132 118 142 134 86 143 152 171 168 174 176 174 170 169 173 178 177 184 193 188 176 163 157 155 164 164 166 172 167 140 122 127 131 125 121 121 117 110 108
13 45 65 187 237 289 186 170 151 147 140 132 111 109 154 185 180 175 177 176 176 177 170 171 175 182 186 190 193 193 198 175 166 160 162 168 175 182 187 193 192 186 175 171 174 183 167 143 141
90 77 198 208 190 199 193 170 153 154 150 167 142 101 156 173 187 179 176 172 175 176 175 174 180 184 188 193 197 200 204 202 198 187 193 198 201 200 201 210 221 231 245 257 249 243 240 228 231
43 98 256 241 190 235 181 136 166 158 150 134 190 167 182 187 177 170 180 181 186 183 184 186 188 189 191 195 201 204 207 211 215 219 224 213 223 224 222 226 231 245 259 268 272 269 257 262 269
225 68 149 311 152 257 188 136 140 157 142 151 174 179 201 168 172 173 185 188 197 200 196 197 198 199 200 203 208 212 215 219 221 226 236 231 234 241 250 249 249 252 256 265 275 278 274 273 277
122 129 190 212 267 251 226 158 141 140 139 121 156 170 157 166 180 181 191 194 204 208 204 207 207 207 208 209 213 218 222 227 231 234 240 245 245 250 255 252 256 255 267 275 279 283 288 286 282
159 183 209 301 342 13 181 162 142 137 250 196 178 163 166 174 185 194 199 205 214 219 218 215 213 215 216 216 219 223 227 231 234 236 242 248 251 251 255 254 255 263 272 279 285 286 287 286 286
169 217 217 350 5 42 106 296 170 169 213 213 203 184 177 184 193 199 206 210 214 221 228 226 222 217 219 218 223 227 231 235 239 242 245 250 254 256 257 258 261 267 277 276 277 284 283 283 284
162 255 140 118 18 29 51 28 247 187 172 210 196 189 191 196 203 205 212 219 224 228 229 231 235 236 231 226 224 226 232 239 246 247 249 251 254 257 260 265 269 274 274 275 274 278 281 284 286
147 257 243 130 108 4 30 269 7 182 162 155 184 198 202 207 211 211 214 219 225 231 236 241 247 243 241 238 234 233 238 243 246 248 250 256 259 261 262 266 270 271 272 274 276 279 282 286 289
88 104 353 197 176 142 115 313 208 131 184 177 189 198 208 218 218 221 224 221 227 231 233 235 238 239 238 241 244 245 248 248 250 252 251 258 263 266 269 271 271 274 274 275 278 282 285 286 289
98 54 86 282 184 194 135 257 287 231 235 197 196 205 214 220 229 231 230 233 232 231 232 234 233 234 238 242 246 249 251 256 260 264 267 265 267 272 274 274 274 277 275 276 277 281 283 284 285
8 182 204 300 199 133 149 243 236 246 280 229 215 213 221 225 228 232 233 237 241 247 250 251 250 248 246 246 249 252 256 258 263 264 266 267 268 270 272 274 276 274 275 275 276 277 279 283 285
182 188 212 211 276 143 177 258 264 276 310 289 252 241 235 234 230 227 225 232 238 247 252 254 255 257 258 258 257 255 255 259 263 263 265 267 267 268 270 271 271 271 269 271 271 274 275 277 282
146 148 191 232 254 196 218 265 276 279 290 278 264 256 246 238 239 233 226 230 233 236 241 247 251 254 251 250 253 256 262 270 274 273 270 263 263 266 266 268 270 268 266 268 270 272 271 276 281
88 124 191 49 45 87 13 277 272 271 262 261 260 252 247 251 247 249 250 252 253 250 251 246 241 245 251 250 253 258 266 271 274 276 270 265 264 265 266 267 266 265 265 266 269 269 272 274 278
165 183 199 158 152 55 24 284 284 280 256 261 257 257 257 256 262 263 265 269 265 262 259 256 253 250 248 251 255 259 260 260 264 266 270 272 269 269 267 268 266 261 263 264 267 269 271 273 276
186 189 156 141 115 216 47 273 294 258 286 255 266 255 255 259 262 264 267 269 265 262 258 259 257 248 243 245 249 253 257 261 265 269 275 272 266 267 270 267 267 259 256 259 264 267 270 270 272
172 153 153 122 96 65 300 121 269 294 278 268 269 256 250 245 240 239 245 246 248 249 252 254 253 251 252 253 256 255 253 260 260 260 263 268 267 260 253 250 256 264 248 256 268 272 273 272 273
152 80 54 60 83 322 218 173 264 228 223 236 145 129 146 159 185 228 252 258 257 259 262 263 260 256 255 256 257 256 254 254 250 251 258 258 260 256 256 257 254 255 250 252 258 265 267 268 270
121 107 37 354 2 230 132 166 244 256 251 215 180 161 159 177 199 225 248 272 279 275 265 263 262 257 255 249 247 249 250 251 250 251 258 264 259 258 266 269 265 264 256 261 271 273 274 278 275
165 150 165 201 201 236 142 232 244 250 242 247 171 163 180 194 202 209 220 52 28 7 358 351 333 309 277 258 250 248 247 247 248 251 255 254 251 256 264 264 263 263 265 268 273 276 275 275 277
196 187 156 99 20 58 230 285 298 178 100 130 145 166 170 169 160 165 155 29 26 23 12 357 342 329 312 297 267 247 243 241 242 245 247 247 252 258 259 259 261 265 269 272 273 274 276 280 281
148 153 96 351 143 230 265 266 240 197 205 153 135 139 141 147 135 116 102 88 55 28 7 341 327 316 304 286 270 254 238 231 229 232 235 237 238 241 245 249 255 262 269 273 278 283 287 287 287
146 182 191 141 165 175 212 256 215 240 179 171 162 147 136 129 119 105 90 50 7 349 343 336 322 308 298 285 268 251 236 223 216 213 215 216 219 220 226 237 253 269 279 285 287 287 286 284 286
180 193 158 150 217 219 152 270 294 218 165 162 167 155 145 139 130 107 68 36 8 359 354 344 328 309 294 281 268 251 232 216 208 205 206 209 217 227 241 258 272 280 283 286 288 287 287 289 290
Wind_Speed_850mb
35 18 10 2 7 9 2 1 1 4 6 11 10 20 18 11 3 5 34 34 30 38 36 36 38 36 31 27 24 23 21 19 17 14 13 13 13 14 14 19 23 20 25 24 24 24 25 24 26
37 19 3 4 8 6 8 2 8 5 14 35 31 18 12 4 10 28 47 31 24 40 36 36 37 35 33 28 22 18 16 13 12 11 12 12 13 12 13 18 26 15 13 19 22 23 23 23 24
32 13 2 8 6 8 9 7 12 8 12 5 11 18 8 6 13 48 36 38 34 38 34 35 37 36 31 27 22 17 12 12 13 13 13 13 12 8 12 13 17 22 16 17 19 20 20 20 20
23 3 6 7 6 5 14 14 11 13 10 10 25 14 9 8 36 33 43 39 34 37 32 30 33 33 31 28 23 15 12 15 15 13 11 10 9 8 6 10 11 14 13 13 14 16 15 15 14
16 3 6 5 5 2 4 27 24 8 9 16 13 7 8 33 14 32 40 39 38 40 35 32 31 32 31 29 25 18 17 15 15 12 10 10 10 8 7 5 5 8 8 7 8 9 10 10 10
8 4 7 2 4 1 6 29 23 14 13 17 17 14 10 22 27 32 35 35 41 40 37 33 31 31 32 30 25 21 16 16 13 10 11 8 9 9 8 6 5 4 4 4 5 5 5 5 4
5 6 6 5 10 5 11 25 27 21 22 8 29 9 15 28 28 34 35 33 41 38 34 31 28 28 28 28 26 24 22 17 15 12 9 8 7 8 8 8 7 7 6 4 5 7 7 6 5
3 7 3 3 11 9 13 14 23 30 10 22 15 14 14 39 36 37 28 32 37 36 34 35 34 33 31 30 29 27 26 24 21 16 14 8 7 7 7 8 9 9 10 9 9 10 11 11 11
2 6 1 4 11 8 18 10 10 16 21 11 11 14 10 49 46 43 35 32 32 37 38 38 35 31 29 28 27 26 25 24 24 22 18 13 12 11 11 12 12 11 11 12 13 14 14 15 16
6 6 9 2 5 9 8 12 24 13 18 7 12 15 37 54 56 56 53 46 44 39 38 39 39 36 33 31 29 27 25 26 25 23 22 20 18 18 17 16 14 12 13 15 16 17 17 17 19
8 9 5 4 10 5 15 11 10 26 5 18 34 41 48 52 56 55 50 48 43 36 35 37 38 41 38 35 32 30 28 27 27 26 26 25 24 24 24 21 20 18 19 20 21 21 21 21 22
4 3 3 1 13 8 6 8 9 20 8 16 29 38 47 48 52 56 54 50 47 42 37 34 30 31 38 35 35 32 32 30 30 26 27 29 29 28 28 25 23 22 21 23 23 23 23 24 25
7 5 4 4 5 7 4 7 4 16 11 9 36 44 46 45 46 48 51 47 44 44 40 39 37 33 32 36 36 36 34 32 29 30 29 30 30 30 31 30 29 28 28 28 27 27 27 29 28
3 5 4 4 4 2 3 4 4 10 17 14 30 46 45 41 40 42 49 54 54 45 44 41 43 42 40 37 34 31 31 31 31 31 28 29 30 30 32 33 34 34 33 32 31 31 32 32 33
2 3 7 5 5 4 3 11 8 14 18 22 31 36 35 34 34 37 37 42 43 40 38 41 43 41 45 40 36 34 32 32 33 31 30 29 30 30 33 33 35 37 36 36 37 36 37 38 38
6 8 3 5 11 4 11 14 7 16 15 25 29 31 33 32 34 30 28 30 31 32 34 33 34 37 36 37 37 39 40 40 37 38 38 37 36 36 37 38 38 35 38 40 41 41 42 44 43
8 7 9 9 4 5 6 12 5 0 4 30 28 31 32 32 36 37 34 33 31 31 31 34 35 37 36 36 36 38 38 43 43 47 47 46 45 43 45 45 41 36 40 43 44 45 46 47 46
13 8 8 9 3 3 7 16 12 17 14 13 20 32 38 39 39 35 34 40 39 37 37 38 38 38 36 36 38 40 42 44 46 48 50 51 51 51 51 51 48 42 42 45 46 47 44 48 48
12 8 8 3 3 5 9 13 16 35 33 40 36 33 39 44 37 23 28 31 33 43 48 49 49 49 46 46 47 49 52 52 51 51 47 46 46 48 51 54 54 49 49 48 46 45 47 49 50
7 5 4 3 2 4 2 16 20 26 32 56 59 58 55 49 46 38 33 35 38 37 37 42 47 48 51 53 53 54 55 56 51 47 44 43 42 42 43 47 53 52 53 51 48 47 50 51 51
7 9 7 5 4 4 4 12 14 11 29 48 66 64 60 64 64 59 55 50 47 43 45 48 51 56 54 51 49 51 53 57 56 54 50 45 43 40 36 41 47 55 47 50 49 49 48 50 50
11 10 11 13 7 6 2 9 11 8 15 13 32 42 56 59 57 55 47 50 55 57 51 48 49 52 54 55 56 58 60 61 57 53 47 42 37 37 39 39 40 49 50 46 47 48 48 45 48
7 8 12 7 7 5 4 2 15 7 15 17 13 27 24 18 17 21 22 26 31 38 45 49 52 55 56 54 56 58 60 62 53 46 43 41 38 36 35 32 31 28 43 51 47 41 37 36 40
13 13 14 9 7 3 15 14 10 9 14 2 4 12 16 14 11 11 15 18 24 32 37 40 44 49 52 52 50 51 53 52 51 49 46 42 40 38 34 32 33 31 32 40 41 38 35 36 38
4 11 4 4 3 10 3 8 15 16 13 9 16 20 16 13 10 7 5 4 6 8 11 15 19 24 29 36 45 50 50 48 47 47 47 44 39 37 38 38 35 33 32 35 36 34 38 39 38
8 11 9 15 9 7 3 12 11 8 29 18 22 20 16 13 11 7 4 1 4 4 5 6 7 8 12 18 22 27 34 43 47 46 42 40 41 42 42 38 35 34 33 34 36 37 38 40 41
9 9 9 10 5 5 7 12 16 7 8 16 17 13 10 13 13 7 2 3 6 9 9 9 8 8 8 9 11 15 19 22 25 30 32 34 37 39 36 33 31 30 30 29 29 31 32 35 37
8 12 4 4 7 8 8 8 10 5 11 8 11 17 15 17 13 11 11 12 11 11 10 9 11 12 13 12 12 11 13 16 18 21 23 24 25 25 24 22 20 19 21 23 25 28 30 32 35
9 7 7 7 8 7 2 10 12 13 16 17 17 19 21 21 21 15 10 6 9 10 12 15 15 15 15 16 16 17 18 18 20 20 21 19 19 18 17 15 16 17 20 23 25 27 29 31 32
5 10 10 7 10 6 4 10 8 7 23 33 24 27 24 16 13 9 8 5 11 15 16 18 21 22 21 19 18 19 19 20 21 20 19 18 17 15 15 15 17 19 22 24 27 29 29 29 30
Wind_Direction_850mb
341 339 317 244 61 67 301 23 88 73 47 69 94 105 117 69 116 180 146 154 170 170 162 158 154 150 151 146 149 154 155 153 149 141 134 126 121 112 95 104 109 94 90 90 96 101 107 108 116
337 331 334 93 87 80 264 283 121 153 138 110 101 88 63 93 133 143 154 163 181 170 165 162 160 158 161 160 160 157 161 158 148 146 144 140 134 123 108 109 107 94 79 94 98 104 107 107 117
333 337 100 102 119 171 180 198 161 129 121 122 105 90 90 134 167 153 161 162 172 170 168 167 166 164 165 163 165 168 164 166 168 162 157 156 143 129 112 102 110 123 114 105 101 101 103 103 111
337 57 66 87 179 219 164 191 161 134 108 86 115 73 97 203 157 166 159 170 171 173 168 168 171 171 169 170 175 187 177 167 167 164 159 153 164 158 134 104 103 112 126 105 106 100 101 103 107
342 33 57 94 297 28 134 170 162 125 132 118 142 134 86 143 152 171 168 174 176 174 170 169 173 178 177 184 193 188 176 163 157 155 164 164 166 172 167 140 122 127 131 125 121 121 117 110 108
13 45 65 187 237 289 186 170 151 147 140 132 111 109 154 185 180 175 177 176 176 177 170 171 175 182 186 190 193 193 198 175 166 160 162 168 175 182 187 193 192 186 175 171 174 183 167 143 141
90 77 198 208 190 199 193 170 153 154 150 167 142 101 156 173 187 179 176 172 175 176 175 174 180 184 188 193 197 200 204 202 198 187 193 198 201 200 201 210 221 231 245 257 249 243 240 228 231
43 98 256 241 190 235 181 136 166 158 150 134 190 167 182 187 177 170 180 181 186 183 184 186 188 189 191 195 201 204 207 211 215 219 224 213 223 224 222 226 231 245 259 268 272 269 257 262 269
225 68 149 311 152 257 188 136 140 157 142 151 174 179 201 168 172 173 185 188 197 200 196 197 198 199 200 203 208 212 215 219 221 226 236 231 234 241 250 249 249 252 256 265 275 278 274 273 277
122 129 190 212 267 251 226 158 141 140 139 121 156 170 157 166 180 181 191 194 204 208 204 207 207 207 208 209 213 218 222 227 231 234 240 245 245 250 255 252 256 255 267 275 279 283 288 286 282
159 183 209 301 342 13 181 162 142 137 250 196 178 163 166 174 185 194 199 205 214 219 218 215 213 215 216 216 219 223 227 231 234 236 242 248 251 251 255 254 255 263 272 279 285 286 287 286 286
169 217 217 350 5 42 106 296 170 169 213 213 203 184 177 184 193 199 206 210 214 221 228 226 222 217 219 218 223 227 231 235 239 242 245 250 254 256 257 258 261 267 277 276 277 284 283 283 284
162 255 140 118 18 29 51 28 247 187 172 210 196 189 191 196 203 205 212 219 224 228 229 231 235 236 231 226 224 226 232 239 246 247 249 251 254 257 260 265 269 274 274 275 274 278 281 284 286
147 257 243 130 108 4 30 269 7 182 162 155 184 198 202 207 211 211 214 219 225 231 236 241 247 243 241 238 234 233 238 243 246 248 250 256 259 261 262 266 270 271 272 274 276 279 282 286 289
88 104 353 197 176 142 115 313 208 131 184 177 189 198 208 218 218 221 224 221 227 231 233 235 238 239 238 241 244 245 248 248 250 252 251 258 263 266 269 271 271 274 274 275 278 282 285 286 289
98 54 86 282 184 194 135 257 287 231 235 197 196 205 214 220 229 231 230 233 232 231 232 234 233 234 238 242 246 249 251 256 260 264 267 265 267 272 274 274 274 277 275 276 277 281 283 284 285
8 182 204 300 199 133 149 243 236 246 280 229 215 213 221 225 228 232 233 237 241 247 250 251 250 248 246 246 249 252 256 258 263 264 266 267 268 270 272 274 276 274 275 275 276 277 279 283 285
182 188 212 211 276 143 177 258 264 276 310 289 252 241 235 234 230 227 225 232 238 247 252 254 255 257 258 258 257 255 255 259 263 263 265 267 267 268 270 271 271 271 269 271 271 274 275 277 282
146 148 191 232 254 196 218 265 276 279 290 278 264 256 246 238 239 233 226 230 233 236 241 247 251 254 251 250 253 256 262 270 274 273 270 263 263 266 266 268 270 268 266 268 270 272 271 276 281
88 124 191 49 45 87 13 277 272 271 262 261 260 252 247 251 247 249 250 252 253 250 251 246 241 245 251 250 253 258 266 271 274 276 270 265 264 265 266 267 266 265 265 266 269 269 272 274 278
165 183 199 158 152 55 24 284 284 280 256 261 257 257 257 256 262 263 265 269 265 262 259 256 253 250 248 251 255 259 260 260 264 266 270 272 269 269 267 268 266 261 263 264 267 269 271 273 276
186 189 156 141 115 216 47 273 294 258 286 255 266 255 255 259 262 264 267 269 265 262 258 259 257 248 243 245 249 253 257 261 265 269 275 272 266 267 270 267 267 259 256 259 264 267 270 270 272
172 153 153 122 96 65 300 121 269 294 278 268 269 256 250 245 240 239 245 246 248 249 252 254 253 251 252 253 256 255 253 260 260 260 263 268 267 260 253 250 256 264 248 256 268 272 273 272 273
152 80 54 60 83 322 218 173 264 228 223 236 145 129 146 159 185 228 252 258 257 259 262 263 260 256 255 256 257 256 254 254 250 251 258 258 260 256 256 257 254 255 250 252 258 265 267 268 270
121 107 37 354 2 230 132 166 244 256 251 215 180 161 159 177 199 225 248 272 279 275 265 263 262 257 255 249 247 249 250 251 250 251 258 264 259 258 266 269 265 264 256 261 271 273 274 278 275
165 150 165 201 201 236 142 232 244 250 242 247 171 163 180 194 202 209 220 52 28 7 358 351 333 309 277 258 250 248 247 247 248 251 255 254 251 256 264 264 263 263 265 268 273 276 275 275 277
196 187 156 99 20 58 230 285 298 178 100 130 145 166 170 169 160 165 155 29 26 23 12 357 342 329 312 297 267 247 243 241 242 245 247 247 252 258 259 259 261 265 269 272 273 274 276 280 281
148 153 96 351 143 230 265 266 240 197 205 153 135 139 141 147 135 116 102 88 55 28 7 341 327 316 304 286 270 254 238 231 229 232 235 237 238 241 245 249 255 262 269 273 278 283 287 287 287
146 182 191 141 165 175 212 256 215 240 179 171 162 147 136 129 119 105 90 50 7 349 343 336 322 308 298 285 268 251 236 223 216 213 215 216 219 220 226 237 253 269 279 285 287 287 286 284 286
180 193 158 150 217 219 152 270 294 218 165 162 167 155 145 139 130 107 68 36 8 359 354 344 328 309 294 281 268 251 232 216 208 205 206 209 217 227 241 258 272 280 283 286 288 287 287 289 290